Regional Weather Roundup
Issued by NWS

Home | Current Version | Previous Version | Graphics & Text | Print | Product List | Glossary On
Versions: 1 2 3 4 5 6 7 8 9 10 11 12 13 14 15 16 17 18 19 20 21 22 23 24 25 26 27 28 29 30 31 32 33 34 35 36 37 38 39 40 41 42 43 44 45 46 47 48 49 50
000
ASUS43 KLMK 030710
RWRKY
KENTUCKY REGIONAL WEATHER ROUNDUP
NATIONAL WEATHER SERVICE LOUISVILLE KY
200 AM EST SAT DEC 03 2016

NOTE "FAIR" INDICATES FEW OR NO CLOUDS BELOW 12,000 FEET
WITH NO SIGNIFICANT WEATHER AND/OR OBSTRUCTIONS TO VISIBILITY.

KYZ001>023-026-027-061>063-070>075-030800-
WESTERN AND SOUTH CENTRAL KENTUCKY

CITY           SKY/WX    TMP DP  RH WIND       PRES   REMARKS
PADUCAH        CLOUDY    37  30  75 E3        30.36R
HENDERSON      CLOUDY    28  25  86 CALM      30.38R
OWENSBORO      MOCLDY    30  29  96 CALM      30.38R
HOPKINSVILLE   CLEAR     37  31  80 CALM      30.34S
BOWLING GREEN  CLOUDY    33  29  85 CALM      30.35F
GLASGOW        MOCLDY    32  31  99 CALM      30.35R
$$

KYZ024-025-028>034-038-045-046-053-030800-
NORTH CENTRAL KENTUCKY

CITY           SKY/WX    TMP DP  RH WIND       PRES   REMARKS
LOUISVILLE/SDF CLOUDY    41  29  62 N6        30.32F
LOUISVILLE/LOU CLOUDY    42  30  62 N5        30.33F
FORT KNOX      CLOUDY    39  30  70 N5        30.31S
$$

KYZ035>037-039>044-047>052-055>060-089>105-030800-
NORTHEAST KENTUCKY

CITY           SKY/WX    TMP DP  RH WIND       PRES   REMARKS
LEXINGTON      NOT AVBL
COVINGTON      NOT AVBL
FRANKFORT      CLOUDY    40  30  67 CALM      30.32S
$$

KYZ054-064>069-076>088-106>120-030800-
SOUTHEAST KENTUCKY

CITY           SKY/WX    TMP DP  RH WIND       PRES   REMARKS
JACKSON        CLOUDY    35  29  78 CALM      30.30F
LONDON         CLOUDY    31  27  85 CALM      30.33R
SOMERSET       NOT AVBL
MIDDLESBORO    PTCLDY    30  29  96 CALM      30.33R
MONTICELLO     MOSUNNY   24  22  91 VRB5      30.35S WCI  18
$$





USA.gov is the U.S. government's official web portal to all federal, state and local government web resources and services.